sat.trackr.live / text

‹ back to catalog

STARLINK-3978

NORAD 52635 · 2022-052AP

PAYLOAD ACTIVE UNKNOWN

§ Identity

Operator
Country
US
Launch date
2022-05-14
Launch site
AFETR
Launch vehicle
Mass (kg)
RCS (m²)

Purposes: comms

External: N2YO · Heavens-Above · Gunter

§ Orbital elements

Epoch: 2026-05-25T01:18:31.468896Z

Period
95.44 min
Inclination
53.2152°
Eccentricity
0.0001496
Mean motion
15.08834800 rev/d
Perigee alt
538.7 km
Apogee alt
540.8 km
Semi-major
6,917.9 km
B*
7.3437e-5
RAAN
276.3022°
Arg perigee
92.1716°
Mean anomaly
267.9448°
Rev number
22,266

§ Raw data

STARLINK-39781 52635U 22052AP  26145.05453089  .00000881  00000+0  73437-4 0  99982 52635  53.2152 276.3022 0001496  92.1716 267.9448 15.08834800222664

JSON: /api/v1/satellites/52635 · /tle

For live sub-satellite position, see the globe view (requires WebGL).

§ Visibility from observer

Set your observer location to see the next 7 days of passes ≥ 10°. The values pass through the URL so the page stays shareable.

No JS? Fill the form by hand. The geolocation button needs JavaScript.